Weather History for Baker, MT

Change the Weather History Date:

Monday, October 22, 2012

  Actual Average Record
Temperature  
Mean Temperature 39 °F -  
Max Temperature 43 °F 74 °F 71 °F (2003)
Min Temperature 35 °F 29 °F 17 °F (2002)
Degree Days  
Heating Degree Days 26    
Moisture  
Dew Point 33 °F    
Average Humidity 83    
Maximum Humidity 89    
Minimum Humidity 68    
Precipitation  
Precipitation 0.09 in - - ()
Sea Level Pressure  
Sea Level Pressure 29.87 in    
Wind  
Wind Speed 19 mph (ESE)    
Max Wind Speed 25 mph    
Max Gust Speed 33 mph    
Visibility 10 miles    
Events Rain    
Averages and records for this station are not official NWS values.
T = Trace of Precipitation, MM = Missing Value Source: NWS Daily Summary

Daily Weather History Graph

Daily Weather History Graph

Search for Another Location

Airport:

Trip Planner

Search our weather history database for the weather conditions in past years. The results will help you decide how hot, cold, wet, or windy it might be!

Date:

Astronomy

Oct. 22, 2012 Rise Set
Actual Time 7:24 AM MDT 5:57 PM MDT
Civil Twilight 6:54 AM MDT 6:27 PM MDT
Nautical Twilight 6:18 AM MDT 7:03 PM MDT
Astronomical Twilight 5:44 AM MDT 7:37 PM MDT
Moon 2:28 PM MDT (10/22) No Moon Set
Length of Visible Light 11h 33m
Length of Day
10h 32m
First Quarter, 57% of the Moon is Illuminated
Oct 22
First Quarter
Oct 29
Full
Nov 6
Last Quarter
Nov 13
New
Nov 20
First Quarter

Hourly Weather History & Observations

Time (MDT) Temp. Windchill Dew Point Humidity Pressure Visibility Wind Dir Wind Speed Gust Speed Precip Events Conditions
12:15 AM 37.4 °F 27.8 °F 30.2 °F 75% 30.01 in 10.0 mi ESE 17.3 mph 28.8 mph 0.01 in Rain Light Rain
1:08 AM 35.6 °F 26.2 °F 30.2 °F 81% 30.00 in 10.0 mi East 15.0 mph - 0.01 in Rain Rain
1:51 AM 35.1 °F 24.8 °F 32.0 °F 89% 30.02 in 10.0 mi East 17.3 mph - 0.06 in Rain Light Rain
2:23 AM 35.6 °F 25.9 °F 32.0 °F 87% 29.98 in 10.0 mi East 16.1 mph 24.2 mph 0.02 in Rain Light Rain
2:51 AM 36.0 °F 26.3 °F 32.0 °F 86% 30.02 in 10.0 mi East 16.1 mph - 0.02 in   Overcast
4:17 AM 35.6 °F 24.8 °F 32.0 °F 87% 29.95 in 10.0 mi East 19.6 mph 26.5 mph 0.00 in   Overcast
4:46 AM 35.6 °F 24.8 °F 32.0 °F 87% 29.95 in 10.0 mi East 19.6 mph - 0.00 in   Overcast
5:22 AM 35.6 °F 24.2 °F 30.2 °F 81% 29.94 in 10.0 mi ESE 21.9 mph - N/A   Overcast
5:51 AM 35.1 °F 24.8 °F 30.9 °F 85% 30.00 in 10.0 mi ESE 17.3 mph - N/A   Overcast
6:40 AM 35.6 °F 24.5 °F 32.0 °F 87% 29.95 in 10.0 mi ESE 20.7 mph 27.6 mph N/A   Overcast
6:51 AM 36.0 °F 26.0 °F 32.0 °F 86% 29.99 in 10.0 mi ESE 17.3 mph 26.5 mph N/A   Overcast
7:51 AM 37.0 °F 27.7 °F 30.9 °F 79% 29.99 in 10.0 mi ESE 16.1 mph 26.5 mph N/A   Overcast
9:51 AM 37.9 °F 27.6 °F 30.9 °F 76% 29.99 in 10.0 mi ESE 20.7 mph 27.6 mph N/A   Overcast
10:51 AM 39.0 °F 29.3 °F 30.9 °F 73% 29.98 in 10.0 mi ESE 19.6 mph 29.9 mph N/A   Overcast
11:39 AM 39.2 °F 29.0 °F 30.2 °F 70% 29.91 in 10.0 mi SE 21.9 mph - N/A   Overcast
11:51 AM 41.0 °F 31.1 °F 32.0 °F 70% 29.94 in 10.0 mi ESE 23.0 mph 28.8 mph N/A   Overcast
12:51 PM 43.0 °F 33.3 °F 33.1 °F 68% 29.92 in 10.0 mi SE 25.3 mph 33.4 mph N/A   Overcast
1:51 PM 42.1 °F 32.6 °F 33.1 °F 70% 29.88 in 10.0 mi SE 23.0 mph 27.6 mph N/A   Overcast
2:51 PM 41.0 °F 32.5 °F 35.1 °F 79% 29.86 in 10.0 mi ESE 17.3 mph 25.3 mph 0.00 in Rain Light Rain
3:22 PM 39.2 °F 30.2 °F 35.6 °F 87% 29.81 in 10.0 mi ESE 17.3 mph 25.3 mph 0.00 in Rain Light Rain
3:59 PM 39.2 °F 29.8 °F 35.6 °F 87% 29.80 in 10.0 mi ESE 18.4 mph - 0.00 in Rain Light Rain
4:26 PM 41.0 °F 32.5 °F 37.4 °F 87% 29.78 in 10.0 mi ESE 17.3 mph - 0.00 in Rain Light Rain
4:51 PM 41.0 °F 31.6 °F 37.0 °F 86% 29.81 in 10.0 mi ESE 20.7 mph - 0.00 in Rain Light Rain
5:14 PM 41.0 °F 31.9 °F 37.4 °F 87% 29.76 in 10.0 mi ESE 19.6 mph - 0.01 in Rain Light Rain
5:51 PM 39.9 °F 30.0 °F 37.0 °F 89% 29.78 in 10.0 mi ESE 21.9 mph 26.5 mph 0.01 in Rain Light Rain
6:51 PM 39.0 °F 28.3 °F 35.1 °F 86% 29.76 in 10.0 mi East 24.2 mph 31.1 mph N/A   Overcast
7:51 PM 37.9 °F 26.8 °F 34.0 °F 86% 29.73 in 10.0 mi ESE 24.2 mph 33.4 mph N/A   Overcast
9:03 PM 37.4 °F 26.1 °F 33.8 °F 87% 29.68 in 10.0 mi ESE 24.2 mph 32.2 mph N/A   Mostly Cloudy
9:30 PM 37.4 °F 26.6 °F 33.8 °F 87% 29.67 in 10.0 mi ESE 21.9 mph - N/A   Overcast
10:17 PM 37.4 °F 27.5 °F 33.8 °F 87% 29.66 in 10.0 mi ESE 18.4 mph - N/A   Scattered Clouds
10:51 PM 37.0 °F 28.1 °F 33.1 °F 86% 29.70 in 10.0 mi ESE 15.0 mph - N/A   Clear
11:20 PM 37.4 °F 29.8 °F 33.8 °F 87% 29.67 in 10.0 mi ESE 11.5 mph - N/A   Mostly Cloudy
11:51 PM 37.0 °F 27.0 °F 33.1 °F 86% 29.66 in 10.0 mi ESE 18.4 mph - N/A   Scattered Clouds